Regional Weather Roundup
Issued by NWS Grand Forks, ND

Home | Current Version | Previous Version | Graphics & Text | Print | Product List | Glossary On
Versions: 1 2 3 4 5 6 7 8 9 10 11 12 13 14 15 16 17 18 19 20 21 22 23 24 25 26 27 28 29 30 31 32 33 34 35 36 37 38 39 40 41 42 43 44 45 46 47 48 49 50
000
ASUS43 KFGF 291331
RWRFGF
PRAIRIE TO PINES  WEATHER ROUNDUP
NATIONAL WEATHER SERVICE EASTERN NORTH DAKOTA/GRAND FORKS ND
800 AM CDT MON AUG 29 2016

 **SATELLITE DATA USED TO AUGMENT SKY COVER AT AUTOMATED STATIONS**
 *****  WEATHER ACROSS EASTERN NORTH DAKOTA  *****

CITY           SKY/WX    TMP DP  RH WIND       PRES   REMARKS
GRAND FORKS    CLOUDY    69  64  84 N8        30.11R
GRAND FRKS AFB CLOUDY    66  62  85 N6        30.12R
GRAND FRKS NWS   N/A     66 N/A N/A N5          N/A
DEVILS LAKE    SUNNY     61  55  81 N13       30.19R
FARGO          SUNNY     72  66  81 SE13      30.06F
WAHPETON ARPT  CLOUDY    70  64  83 SE3       30.12R
$$

 ***** WEATHER ACROSS CENTRAL AND WESTERN NORTH DAKOTA  *****

CITY           SKY/WX    TMP DP  RH WIND       PRES   REMARKS
BISMARCK       CLEAR     62  55  77 NW8       30.21R
MINOT          CLEAR     55  49  80 NW9       30.25R
JAMESTOWN      MOSUNNY   64  62  93 N7        30.14R
MINOT AFB      NOT AVBL
GARRISON         N/A     57  50  77 N12G17    30.23R
WILLISTON      CLEAR     52  44  74 N5        30.30R
DICKINSON      CLOUDY    57  46  66 N12       30.26R
HETTINGER      CLOUDY    62  51  67 N16       30.25R
$$

 *****  OTHER AIRPORT OBSERVATIONS IN OUR AREA  *****

CITY           SKY/WX    TMP DP  RH WIND       PRES   REMARKS
WALHALLA       FAIR      61  61 100 NW13      30.16R
GRAFTON AIRPOR CLOUDY    66  64  94 NW13      30.14R
VALLEY CITY AR FAIR      66  66 100 N10       30.15R
CANDO          FAIR      57  54  88 N12       30.23R
CAVALIER APRT  FAIR      64  57  77 NW13G18   30.15R
GWINNER        FAIR      70  66  88 NW8       30.11R
ROLLA          FAIR      54  48  82 N15G23    30.23R
 ***** THE ABOVE OBSERVATIONS ARE NON NWS ARE NOT QUALITY
       CONTROLLED AND MAY MIS-REPORT RAIN FOR SNOW...
$$

  *****  WEATHER ACROSS NORTHERN MINNESOTA  *****

CITY           SKY/WX    TMP DP  RH WIND       PRES   REMARKS
FLAG ISLAND    CLOUDY    66  64  94 S5        30.07R FOG
WARROAD        PTSUNNY   66  63  88 W1        30.09S
ROSEAU         PTSUNNY   66  61  82 SW7       30.09R
HALLOCK        CLOUDY    66  64  94 NW12      30.11R FOG
THF RVR FALLS  CLOUDY    67  64  90 E3        30.12R
BAUDETTE       CLOUDY    64  62  93 SE15      30.09F
WASKISH        CLOUDY    64  63  94 CALM      30.14R
CROOKSTON      CLOUDY    70  66  88 NE5       30.11R
STEPHEN NDAWN    N/A     66  64  94 NW8         N/A
GREENBUSH NDAW   N/A     66  66 100 CALM        N/A
$$
  *****  WEATHER ACROSS CENTRAL AND WEST MINNESOTA  *****

CITY           SKY/WX    TMP DP  RH WIND       PRES   REMARKS
FOSSTON        MOSUNNY   63  61  94 N5        30.11S
BEMIDJI        CLOUDY    63  62  99 E6        30.12R
PARK RAPIDS    CLOUDY    65  61  87 S10       30.13R
ELBOW LAKE     CLOUDY    69  66  91 SE10      30.13S
WADENA         CLOUDY    63  61  94 SE10      30.14S
DETROIT LAKES  CLOUDY    68  63  83 SE15      30.16R
MOORHEAD       SUNNY     72  66  83 SE12G17   30.08S
FERGUS FALLS   MOSUNNY   70  66  88 SE10      30.12F
MORRIS MN      CLOUDY    70  64  83 SE14G24   30.13R
STAPLES        CLOUDY    63  61  94 CALM      30.16R
$$
  *****  WEATHER ELSEWHERE ACROSS MINNESOTA  *****

CITY           SKY/WX    TMP DP  RH WIND       PRES   REMARKS
DULUTH         CLOUDY    64  62  93 W3        30.15R
INTRNTL FALLS  CLOUDY    63  61  93 VRB3      30.12F
ELY            CLOUDY    63  61  94 W5        30.16R
CLOQUET        LGT RAIN  63  61  94 CALM      30.11F
WHEATON        SUNNY     70  68  94 SE13G18   30.12R
BRAINERD       CLOUDY    65  62  90 S7        30.15R
HIBBING        CLOUDY    59  59 100 CALM      30.14R
ALEXANDRIA     CLOUDY    64  64 100 E10       30.17F
SAINT CLOUD    LGT RAIN  67  65  93 NE7       30.25R
MINNEAPOLIS    MOSUNNY   72  68  87 NE3       30.20R
$$

  *****  WEATHER ACROSS SOUTH DAKOTA  *****

CITY           SKY/WX    TMP DP  RH WIND       PRES   REMARKS
SIOUX FALLS    MOSUNNY   69  67  93 S7        30.13S
BROOKINGS        N/A    N/A N/A N/A MISG        N/A
WATERTOWN      SUNNY     70  68  93 S9        30.11R
HURON          CLOUDY    69  67  93 S8        30.09R
SISSETON         N/A     75  68  78 SE6       30.10R
ABERDEEN       FOG       66  65  96 CALM      30.08R VSB<1/4
MITCHELL       SUNNY     70  67  90 S10       30.11R
PIERRE         CLEAR     68  60  75 S5        30.08R
MOBRIDGE       CLEAR     67  60  78 N12       30.11R
RAPID CITY     CLEAR     61  50  67 NW16      30.20R
$$

  *****  SOME WEATHER IN NEARBY STATES *****

CITY           SKY/WX    TMP DP  RH WIND       PRES   REMARKS
GLASGOW MT     PTCLDY    50  43  77 E6        30.30R
GREAT FALLS MT CLEAR     47  41  80 E3        30.23S
CHEYENNE WY    CLOUDY    56  41  57 W8        30.32R
SCOTTSBLUFF NE CLEAR     53  50  89 CALM      30.22R
OMAHA NE       PTSUNNY   72  67  84 S7        30.18R
DES MOINES IA  CLOUDY    73  71  93 E8        30.18R
DAVENPORT IA   FOG       70  69  97 E8        30.23R VSB 1
CHICAGO IL     MOSUNNY   74  69  85 NE6       30.23S
EAU CLAIRE WI  SUNNY     69  67  93 CALM      30.22R
LA CROSSE WI   MOSUNNY   70  69  97 SE3       30.21S
$$

  *****  SOME NATIONAL WEATHER *****

CITY           SKY/WX    TMP DP  RH WIND       PRES   REMARKS
LA GUARDIA NY  PTSUNNY   80  66  62 NW12      30.11S
RALEIGH NC     CLOUDY    77  70  79 N9        30.16R
ATLANTA GA     MOSUNNY   77  69  76 NE9       30.15S
NEW ORLEANS LA CLOUDY    83  76  79 NE8       29.98R HX  91
OKLAHOMA CITY  PTSUNNY   73  69  87 CALM      30.14R
ALBUQUERQUE NM CLOUDY    59  45  59 E6        30.27R
SALT LAKE CITY PTCLDY    63  38  39 S3        30.20R
LOS ANGELES CA CLEAR     67  61  81 CALM      29.95R
BOISE ID       CLEAR     68  40  35 SE12      30.08R
SEATTLE WA     PTCLDY    54  50  86 CALM      30.06S
$$

*** WEATHER ACROSS MANITOBA...SASKATCHEWAN AND ONTARIO ***
                ***ONTARIO***

CITY           SKY/WX    TMP DP  RH WIND       PRES   REMARKS
GERALDTON      CLOUDY    57  55  94 S2        30.21F
THUNDER BAY    LGT RAIN  64  63  94 NE5       30.13F FOG
SIOUX LOOKOUT  MOSUNNY   63  61  94 S3        30.06R
TORONTO        MOSUNNY   70  63  78 N9        30.25R
BIG TROUT LK   CLOUDY    61  57  88 S10G17    30.00S
PICKLE LAKE    PTSUNNY   59  57  94 S8        30.06F
DRYDEN         SUNNY     63  63 100 SW13      30.07R
KENORA         PTSUNNY   64  63  94 S9        30.09R
$$
                *** MANITOBA***

CITY           SKY/WX    TMP DP  RH WIND       PRES   REMARKS
BRANDON        MOSUNNY   52  48  87 W5        30.22R
DAUPHIN        PTSUNNY   55  50  82 W7        30.19R
ISLAND LAKE    CLOUDY    63  59  88 W15       29.95R
PILOT MOUND      N/A     54  50  87 NW13        N/A
THE PAS        PTCLDY    52  45  76 W21G28    30.05R
THOMPSON       PTSUNNY   54  46  76 SW9G17    29.91R
WINNIPEG       SUNNY     63  57  82 NW10      30.12
LYNN LAKE      CLOUDY    52  50  93 MISG      29.82R
CHURCHILL      LGT RAIN  50  50 100 E12       29.84S
GILLAM         CLOUDY    63  61  94 SW9       29.83S
$$
                ***SASKATCHEWAN***

CITY           SKY/WX    TMP DP  RH WIND       PRES   REMARKS
ESTEVAN        MOCLDY    45  43  93 W6        30.29R
KINDERSLEY     PTCLDY    41  39  93 VRB2      30.28R
LLOYDMINSTER   PTCLDY    39  37  93 W7        30.26R
PRINCE ALBERT  PTCLDY    45  41  87 W10       30.23R
REGINA         PTCLDY    37  37 100 W2        30.29R
YORKTON        CLEAR     48  43  81 NW10      30.23R
N. BATTLEFORD  NOT AVBL
LA RONGE       PTCLDY    46  41  81 W13G20    30.10R
SASKATOON      PTCLDY    37  37 100 W6        30.28S
SWIFT CURRENT  CLEAR     39  39 100 SE7       30.28S
$$
NOTE: THESE ARE AUTOMATED STATIONS WITH LIMITED QUALITY CONTROL
      "FAIR" INDICATES FEW OR NO CLOUDS BELOW 12,000 FEET WITH NO
      SIGNIFICANT WEATHER AND/OR OBSTRUCTIONS TO VISIBILITY.
      SKY/WX - SKY CONDITION AND SIGNIFICANT WEATHER.
      TMP - AIR TEMPERATURE.    DP   - DEWPOINT TEMPERATURE.
      RH  - RELATIVE HUMIDITY.  PRES - PRESSURE.
      HX  - HEAT INDEX.         WCI  - WIND CHILL INDEX.
$




USA.gov is the U.S. government's official web portal to all federal, state and local government web resources and services.